310P/Hill (2015)

Japanese version
Home page
Updated on March 21, 2016

---------------------------------------------------------------------

* Profile

Designation 310P/2014 Q5
Recovery Date August 24, 2014
Magnitude 19.5 mag
Recoverer Krisztian Sarneczky (Konkoly Observatory)

* Pictures

* Orbital Elements

Epoch 2015 Apr. 8.0 TT = JDT 2457120.5
T 2015 Apr. 18.60644 TT                                 MPCW
q   2.3837791            (2000.0)            P               Q
n   0.11638220     Peri.   31.41203     +0.76392923     -0.64432003
a   4.1547510      Node     8.96592     +0.53462496     +0.60109567
e   0.4262522      Incl.   13.18588     +0.36137001     +0.47279561
P   8.47
From 248 observations 2006 Aug. 29-2016 Feb. 5, mean residual 0".5.

* Magnitudes Graph

        m1 = 14.0 + 5 log d + 10.0 log r

---------------------------------------------------------------------

The orbital elements are published on M.P.E.C. 2016-D32.
The magnitudes graphs are made with Comet for Windows.

---------------------------------------------------------------------

Copyright(C) Seiichi Yoshida (comet@aerith.net). All rights reserved.